Year,Month,Day,Hour,Minute,Value (Times are PST for temperature in C)
2017,05,24,00,00,8.10
2017,05,24,00,01,8.10
2017,05,24,00,02,8.10
2017,05,24,00,03,8.10
2017,05,24,00,04,8.10
2017,05,24,00,05,8.00
2017,05,24,00,06,8.00
2017,05,24,00,07,8.10
2017,05,24,00,08,8.10
2017,05,24,00,09,8.10
2017,05,24,00,10,8.10
2017,05,24,00,11,8.00
2017,05,24,00,12,8.00
2017,05,24,00,13,8.00
2017,05,24,00,14,7.90
2017,05,24,00,15,7.90
2017,05,24,00,16,7.80
2017,05,24,00,17,7.80
2017,05,24,00,18,7.80
2017,05,24,00,19,7.70
2017,05,24,00,20,7.70
2017,05,24,00,21,7.60
2017,05,24,00,22,7.60
2017,05,24,00,23,7.60
2017,05,24,00,24,7.50
2017,05,24,00,25,7.40
2017,05,24,00,26,7.40
2017,05,24,00,27,7.30
2017,05,24,00,28,7.30
2017,05,24,00,29,7.30
2017,05,24,00,30,7.20
2017,05,24,00,31,7.20
2017,05,24,00,32,7.20
2017,05,24,00,33,7.20
2017,05,24,00,34,7.20
2017,05,24,00,35,7.10
2017,05,24,00,36,7.10
2017,05,24,00,37,7.00
2017,05,24,00,38,7.00
2017,05,24,00,39,7.00
2017,05,24,00,40,6.90
2017,05,24,00,41,6.90
2017,05,24,00,42,6.90
2017,05,24,00,43,6.80
2017,05,24,00,44,6.80
2017,05,24,00,45,6.80
2017,05,24,00,46,6.90
2017,05,24,00,47,6.90
2017,05,24,00,48,6.80
2017,05,24,00,49,6.90
2017,05,24,00,50,6.90
2017,05,24,00,51,6.90
2017,05,24,00,52,6.90
2017,05,24,00,53,7.00
2017,05,24,00,54,7.00
2017,05,24,00,55,7.00
2017,05,24,00,56,7.00
2017,05,24,00,57,6.90
2017,05,24,00,58,6.90
2017,05,24,00,59,6.90
2017,05,24,01,00,6.90
2017,05,24,01,01,6.80
2017,05,24,01,02,6.80
2017,05,24,01,03,6.80
2017,05,24,01,04,6.80
2017,05,24,01,05,6.70
2017,05,24,01,06,6.70
2017,05,24,01,07,6.70
2017,05,24,01,08,6.70
2017,05,24,01,09,6.70
2017,05,24,01,10,6.60
2017,05,24,01,11,6.60
2017,05,24,01,12,6.60
2017,05,24,01,13,6.60
2017,05,24,01,14,6.60
2017,05,24,01,15,6.60
2017,05,24,01,16,6.70
2017,05,24,01,17,6.70
2017,05,24,01,18,6.70
2017,05,24,01,19,6.70
2017,05,24,01,20,6.80
2017,05,24,01,21,6.80
2017,05,24,01,22,6.80
2017,05,24,01,23,6.80
2017,05,24,01,24,6.80
2017,05,24,01,25,6.80
2017,05,24,01,26,6.80
2017,05,24,01,27,6.80
2017,05,24,01,28,6.80
2017,05,24,01,29,6.90
2017,05,24,01,30,6.90
2017,05,24,01,31,6.90
2017,05,24,01,32,6.90
2017,05,24,01,33,6.90
2017,05,24,01,34,6.90
2017,05,24,01,35,6.90
2017,05,24,01,36,7.00
2017,05,24,01,37,7.00
2017,05,24,01,38,7.00
2017,05,24,01,39,7.00
2017,05,24,01,40,7.10
2017,05,24,01,41,7.10
2017,05,24,01,42,7.10
2017,05,24,01,43,7.20
2017,05,24,01,44,7.20
2017,05,24,01,45,7.20
2017,05,24,01,46,7.20
2017,05,24,01,47,7.20
2017,05,24,01,48,7.20
2017,05,24,01,49,7.20
2017,05,24,01,50,7.20
2017,05,24,01,51,7.20
2017,05,24,01,52,7.20
2017,05,24,01,53,7.20
2017,05,24,01,54,7.20
2017,05,24,01,55,7.20
2017,05,24,01,56,7.20
2017,05,24,01,57,7.20
2017,05,24,01,58,7.10
2017,05,24,01,59,7.10
2017,05,24,02,00,7.00
2017,05,24,02,01,7.00
2017,05,24,02,02,6.90
2017,05,24,02,03,6.90
2017,05,24,02,04,6.80
2017,05,24,02,05,6.80
2017,05,24,02,06,6.80
2017,05,24,02,07,6.80
2017,05,24,02,08,6.80
2017,05,24,02,09,6.80
2017,05,24,02,10,6.80
2017,05,24,02,11,6.80
2017,05,24,02,12,6.80
2017,05,24,02,13,6.70
2017,05,24,02,14,6.70
2017,05,24,02,15,6.70
2017,05,24,02,16,6.70
2017,05,24,02,17,6.70
2017,05,24,02,18,6.70
2017,05,24,02,19,6.60
2017,05,24,02,20,6.60
2017,05,24,02,21,6.60
2017,05,24,02,22,6.60
2017,05,24,02,23,6.60
2017,05,24,02,24,6.60
2017,05,24,02,25,6.60
2017,05,24,02,26,6.60
2017,05,24,02,27,6.60
2017,05,24,02,28,6.60
2017,05,24,02,29,6.60
2017,05,24,02,30,6.60
2017,05,24,02,31,6.60
2017,05,24,02,32,6.60
2017,05,24,02,33,6.60
2017,05,24,02,34,6.60
2017,05,24,02,35,6.60
2017,05,24,02,36,6.60
2017,05,24,02,37,6.50
2017,05,24,02,38,6.50
2017,05,24,02,39,6.40
2017,05,24,02,40,6.40
2017,05,24,02,41,6.40
2017,05,24,02,42,6.40
2017,05,24,02,43,6.30
2017,05,24,02,44,6.30
2017,05,24,02,45,6.30
2017,05,24,02,46,6.30
2017,05,24,02,47,6.30
2017,05,24,02,48,6.30
2017,05,24,02,49,6.20
2017,05,24,02,50,6.20
2017,05,24,02,51,6.20
2017,05,24,02,52,6.20
2017,05,24,02,53,6.20
2017,05,24,02,54,6.20
2017,05,24,02,55,6.20
2017,05,24,02,56,6.10
2017,05,24,02,57,6.10
2017,05,24,02,58,6.10
2017,05,24,02,59,6.10
2017,05,24,03,00,6.00
2017,05,24,03,01,6.00
2017,05,24,03,02,6.00
2017,05,24,03,03,6.00
2017,05,24,03,04,5.90
2017,05,24,03,05,5.90
2017,05,24,03,06,5.90
2017,05,24,03,07,5.90
2017,05,24,03,08,5.90
2017,05,24,03,09,5.90
2017,05,24,03,10,5.80
2017,05,24,03,11,5.80
2017,05,24,03,12,5.80
2017,05,24,03,13,5.80
2017,05,24,03,14,5.80
2017,05,24,03,15,5.80
2017,05,24,03,16,5.80
2017,05,24,03,17,5.80
2017,05,24,03,18,5.70
2017,05,24,03,19,5.70
2017,05,24,03,20,5.70
2017,05,24,03,21,5.70
2017,05,24,03,22,5.60
2017,05,24,03,23,5.60
2017,05,24,03,24,5.60
2017,05,24,03,25,5.50
2017,05,24,03,26,5.50
2017,05,24,03,27,5.40
2017,05,24,03,28,5.40
2017,05,24,03,29,5.40
2017,05,24,03,30,5.40
2017,05,24,03,31,5.50
2017,05,24,03,32,5.50
2017,05,24,03,33,5.50
2017,05,24,03,34,5.50
2017,05,24,03,35,5.50
2017,05,24,03,36,5.50
2017,05,24,03,37,5.60
2017,05,24,03,38,5.60
2017,05,24,03,39,5.60
2017,05,24,03,40,5.70
2017,05,24,03,41,5.70
2017,05,24,03,42,5.70
2017,05,24,03,43,5.70
2017,05,24,03,44,5.70
2017,05,24,03,45,5.80
2017,05,24,03,46,5.80
2017,05,24,03,47,5.80
2017,05,24,03,48,5.80
2017,05,24,03,49,5.80
2017,05,24,03,50,5.90
2017,05,24,03,51,5.90
2017,05,24,03,52,5.90
2017,05,24,03,53,5.90
2017,05,24,03,54,5.90
2017,05,24,03,55,5.90
2017,05,24,03,56,5.90
2017,05,24,03,57,5.90
2017,05,24,03,58,5.90
2017,05,24,03,59,5.90
2017,05,24,04,00,5.90
2017,05,24,04,01,5.90
2017,05,24,04,02,5.90
2017,05,24,04,03,5.80
2017,05,24,04,04,5.80
2017,05,24,04,05,5.80
2017,05,24,04,06,5.80
2017,05,24,04,07,5.80
2017,05,24,04,08,5.80
2017,05,24,04,09,5.80
2017,05,24,04,10,5.80
2017,05,24,04,11,5.80
2017,05,24,04,12,5.70
2017,05,24,04,13,5.70
2017,05,24,04,14,5.70
2017,05,24,04,15,5.70
2017,05,24,04,16,5.70
2017,05,24,04,17,5.70
2017,05,24,04,18,5.60
2017,05,24,04,19,5.60
2017,05,24,04,20,5.60
2017,05,24,04,21,5.60
2017,05,24,04,22,5.50
2017,05,24,04,23,5.50
2017,05,24,04,24,5.40
2017,05,24,04,25,5.40
2017,05,24,04,26,5.40
2017,05,24,04,27,5.30
2017,05,24,04,28,5.30
2017,05,24,04,29,5.30
2017,05,24,04,30,5.30
2017,05,24,04,31,5.20
2017,05,24,04,32,5.20
2017,05,24,04,33,5.20
2017,05,24,04,34,5.10
2017,05,24,04,35,5.10
2017,05,24,04,36,5.10
2017,05,24,04,37,5.10
2017,05,24,04,38,5.10
2017,05,24,04,39,5.10
2017,05,24,04,40,5.10
2017,05,24,04,41,5.10
2017,05,24,04,42,5.00
2017,05,24,04,43,5.00
2017,05,24,04,44,5.00
2017,05,24,04,45,4.90
2017,05,24,04,46,4.90
2017,05,24,04,47,4.90
2017,05,24,04,48,4.80
2017,05,24,04,49,4.80
2017,05,24,04,50,4.80
2017,05,24,04,51,4.80
2017,05,24,04,52,4.80
2017,05,24,04,53,4.80
2017,05,24,04,54,4.80
2017,05,24,04,55,4.90
2017,05,24,04,56,4.90
2017,05,24,04,57,4.80
2017,05,24,04,58,4.80
2017,05,24,04,59,4.80
2017,05,24,05,00,4.80
2017,05,24,05,01,4.80
2017,05,24,05,02,4.80
2017,05,24,05,03,4.80
2017,05,24,05,04,4.80
2017,05,24,05,05,4.90
2017,05,24,05,06,4.90
2017,05,24,05,07,4.90
2017,05,24,05,08,5.00
2017,05,24,05,09,5.00
2017,05,24,05,10,5.10
2017,05,24,05,11,5.10
2017,05,24,05,12,5.10
2017,05,24,05,13,5.10
2017,05,24,05,14,5.20
2017,05,24,05,15,5.20
2017,05,24,05,16,5.20
2017,05,24,05,17,5.20
2017,05,24,05,18,5.20
2017,05,24,05,19,5.20
2017,05,24,05,20,5.20
2017,05,24,05,21,5.20
2017,05,24,05,22,5.10
2017,05,24,05,23,5.10
2017,05,24,05,24,5.10
2017,05,24,05,25,5.10
2017,05,24,05,26,5.10
2017,05,24,05,27,5.00
2017,05,24,05,28,5.00
2017,05,24,05,29,4.90
2017,05,24,05,30,4.90
2017,05,24,05,31,4.90
2017,05,24,05,32,4.90
2017,05,24,05,33,4.80
2017,05,24,05,34,4.80
2017,05,24,05,35,4.70
2017,05,24,05,36,4.70
2017,05,24,05,37,4.70
2017,05,24,05,38,4.60
2017,05,24,05,39,4.60
2017,05,24,05,40,4.60
2017,05,24,05,41,4.60
2017,05,24,05,42,4.60
2017,05,24,05,43,4.60
2017,05,24,05,44,4.60
2017,05,24,05,45,4.60
2017,05,24,05,46,4.60
2017,05,24,05,47,4.60
2017,05,24,05,48,4.60
2017,05,24,05,49,4.60
2017,05,24,05,50,4.60
2017,05,24,05,51,4.60
2017,05,24,05,52,4.60
2017,05,24,05,53,4.70
2017,05,24,05,54,4.70
2017,05,24,05,55,4.70
2017,05,24,05,56,4.70
2017,05,24,05,57,4.60
2017,05,24,05,58,4.60
2017,05,24,05,59,4.60
2017,05,24,06,00,4.60
2017,05,24,06,01,4.60
2017,05,24,06,02,4.50
2017,05,24,06,03,4.50
2017,05,24,06,04,4.50
2017,05,24,06,05,4.50
2017,05,24,06,06,4.50
2017,05,24,06,07,4.40
2017,05,24,06,08,4.40
2017,05,24,06,09,4.40
2017,05,24,06,10,4.50
2017,05,24,06,11,4.40
2017,05,24,06,12,4.50
2017,05,24,06,13,4.50
2017,05,24,06,14,4.50
2017,05,24,06,15,4.50
2017,05,24,06,16,4.60
2017,05,24,06,17,4.60
2017,05,24,06,18,4.60
2017,05,24,06,19,4.60
2017,05,24,06,20,4.60
2017,05,24,06,21,4.70
2017,05,24,06,22,4.70
2017,05,24,06,23,4.70
2017,05,24,06,24,4.80
2017,05,24,06,25,4.80
2017,05,24,06,26,4.80
2017,05,24,06,27,4.80
2017,05,24,06,28,4.80
2017,05,24,06,29,4.80
2017,05,24,06,30,4.80
2017,05,24,06,31,4.80
2017,05,24,06,32,4.90
2017,05,24,06,33,4.90
2017,05,24,06,34,5.00
2017,05,24,06,35,5.00
2017,05,24,06,36,5.10
2017,05,24,06,37,5.10
2017,05,24,06,38,5.10
2017,05,24,06,39,5.10
2017,05,24,06,40,5.10
2017,05,24,06,41,5.10
2017,05,24,06,42,5.10
2017,05,24,06,43,5.20
2017,05,24,06,44,5.20
2017,05,24,06,45,5.20
2017,05,24,06,46,5.20
2017,05,24,06,47,5.20
2017,05,24,06,48,5.30
2017,05,24,06,49,5.30
2017,05,24,06,50,5.30
2017,05,24,06,51,5.30
2017,05,24,06,52,5.30
2017,05,24,06,53,5.30
2017,05,24,06,54,5.40
2017,05,24,06,55,5.40
2017,05,24,06,56,5.40
2017,05,24,06,57,5.50
2017,05,24,06,58,5.50
2017,05,24,06,59,5.60
2017,05,24,07,00,5.70
2017,05,24,07,01,5.80
2017,05,24,07,02,5.90
2017,05,24,07,03,6.00
2017,05,24,07,04,6.00
2017,05,24,07,05,6.10
2017,05,24,07,06,6.20
2017,05,24,07,07,6.20
2017,05,24,07,08,6.30
2017,05,24,07,09,6.30
2017,05,24,07,10,6.40
2017,05,24,07,11,6.50
2017,05,24,07,12,6.50
2017,05,24,07,13,6.60
2017,05,24,07,14,6.60
2017,05,24,07,15,6.60
2017,05,24,07,16,6.70
2017,05,24,07,17,6.70
2017,05,24,07,18,6.80
2017,05,24,07,19,6.80
2017,05,24,07,20,6.80
2017,05,24,07,21,6.80
2017,05,24,07,22,6.90
2017,05,24,07,23,6.90
2017,05,24,07,24,7.00
2017,05,24,07,25,7.00
2017,05,24,07,26,7.10
2017,05,24,07,27,7.10
2017,05,24,07,28,7.10
2017,05,24,07,29,7.20
2017,05,24,07,30,7.20
2017,05,24,07,31,7.20
2017,05,24,07,32,7.20
2017,05,24,07,33,7.20
2017,05,24,07,34,7.30
2017,05,24,07,35,7.30
2017,05,24,07,36,7.30
2017,05,24,07,37,7.40
2017,05,24,07,38,7.40
2017,05,24,07,39,7.40
2017,05,24,07,40,7.50
2017,05,24,07,41,7.50
2017,05,24,07,42,7.60
2017,05,24,07,43,7.60
2017,05,24,07,44,7.60
2017,05,24,07,45,7.70
2017,05,24,07,46,7.70
2017,05,24,07,47,7.70
2017,05,24,07,48,7.80
2017,05,24,07,49,7.80
2017,05,24,07,50,7.90
2017,05,24,07,51,7.90
2017,05,24,07,52,8.00
2017,05,24,07,53,8.00
2017,05,24,07,54,8.10
2017,05,24,07,55,8.10
2017,05,24,07,56,8.20
2017,05,24,07,57,8.30
2017,05,24,07,58,8.30
2017,05,24,07,59,8.40
2017,05,24,08,00,8.50
2017,05,24,08,01,8.50
2017,05,24,08,02,8.60
2017,05,24,08,03,8.70
2017,05,24,08,04,8.70
2017,05,24,08,05,8.80
2017,05,24,08,06,8.90
2017,05,24,08,07,8.90
2017,05,24,08,08,9.00
2017,05,24,08,09,9.10
2017,05,24,08,10,9.20
2017,05,24,08,11,9.30
2017,05,24,08,12,9.30
2017,05,24,08,13,9.30
2017,05,24,08,14,9.20
2017,05,24,08,15,9.20
2017,05,24,08,16,9.30
2017,05,24,08,17,9.30
2017,05,24,08,18,9.30
2017,05,24,08,19,9.40
2017,05,24,08,20,9.40
2017,05,24,08,21,9.50
2017,05,24,08,22,9.50
2017,05,24,08,23,9.60
2017,05,24,08,24,9.60
2017,05,24,08,25,9.70
2017,05,24,08,26,9.70
2017,05,24,08,27,9.80
2017,05,24,08,28,9.80
2017,05,24,08,29,9.80
2017,05,24,08,30,9.90
2017,05,24,08,31,9.90
2017,05,24,08,32,9.90
2017,05,24,08,33,10.00
2017,05,24,08,34,10.10
2017,05,24,08,35,10.10
2017,05,24,08,36,10.20
2017,05,24,08,37,10.20
2017,05,24,08,38,10.20
2017,05,24,08,39,10.20
2017,05,24,08,40,10.20
2017,05,24,08,41,10.30
2017,05,24,08,42,10.30
2017,05,24,08,43,10.20
2017,05,24,08,44,10.20
2017,05,24,08,45,10.20
2017,05,24,08,46,10.20
2017,05,24,08,47,10.20
2017,05,24,08,48,10.20
2017,05,24,08,49,10.20
2017,05,24,08,50,10.20
2017,05,24,08,51,10.20
2017,05,24,08,52,10.20
2017,05,24,08,53,10.30
2017,05,24,08,54,10.30
2017,05,24,08,55,10.40
2017,05,24,08,56,10.40
2017,05,24,08,57,10.50
2017,05,24,08,58,10.60
2017,05,24,08,59,10.60
2017,05,24,09,00,10.70
2017,05,24,09,01,10.70
2017,05,24,09,02,10.80
2017,05,24,09,03,10.80
2017,05,24,09,04,10.90
2017,05,24,09,05,10.90
2017,05,24,09,06,10.90
2017,05,24,09,07,10.90
2017,05,24,09,08,10.90
2017,05,24,09,09,10.90
2017,05,24,09,10,10.90
2017,05,24,09,11,10.80
2017,05,24,09,12,10.80
2017,05,24,09,13,10.80
2017,05,24,09,14,10.70
2017,05,24,09,15,10.70
2017,05,24,09,16,10.70
2017,05,24,09,17,10.70
2017,05,24,09,18,10.70
2017,05,24,09,19,10.70
2017,05,24,09,20,10.80
2017,05,24,09,21,10.80
2017,05,24,09,22,10.80
2017,05,24,09,23,10.90
2017,05,24,09,24,10.90
2017,05,24,09,25,11.00
2017,05,24,09,26,11.00
2017,05,24,09,27,11.10
2017,05,24,09,28,11.20
2017,05,24,09,29,11.20
2017,05,24,09,30,11.30
2017,05,24,09,31,11.30
2017,05,24,09,32,11.30
2017,05,24,09,33,11.30
2017,05,24,09,34,11.30
2017,05,24,09,35,11.30
2017,05,24,09,36,11.30
2017,05,24,09,37,11.40
2017,05,24,09,38,11.50
2017,05,24,09,39,11.60
2017,05,24,09,40,11.60
2017,05,24,09,41,11.70
2017,05,24,09,42,11.70
2017,05,24,09,43,11.70
2017,05,24,09,44,11.70
2017,05,24,09,45,11.70
2017,05,24,09,46,11.60
2017,05,24,09,47,11.60
2017,05,24,09,48,11.60
2017,05,24,09,49,11.70
2017,05,24,09,50,11.80
2017,05,24,09,51,11.80
2017,05,24,09,52,11.90
2017,05,24,09,53,12.00
2017,05,24,09,54,12.10
2017,05,24,09,55,12.20
2017,05,24,09,56,12.30
2017,05,24,09,57,12.40
2017,05,24,09,58,12.50
2017,05,24,09,59,12.60
2017,05,24,10,00,12.70
2017,05,24,10,01,12.90
2017,05,24,10,02,13.00
2017,05,24,10,03,13.30
2017,05,24,10,04,13.40
2017,05,24,10,05,13.40
2017,05,24,10,06,13.40
2017,05,24,10,07,13.40
2017,05,24,10,08,13.40
2017,05,24,10,09,13.30
2017,05,24,10,10,13.30
2017,05,24,10,11,13.30
2017,05,24,10,12,13.20
2017,05,24,10,13,13.20
2017,05,24,10,14,13.10
2017,05,24,10,15,13.00
2017,05,24,10,16,12.90
2017,05,24,10,17,12.90
2017,05,24,10,18,12.80
2017,05,24,10,19,12.80
2017,05,24,10,20,12.70
2017,05,24,10,21,12.70
2017,05,24,10,22,12.70
2017,05,24,10,23,12.70
2017,05,24,10,24,12.80
2017,05,24,10,25,12.80
2017,05,24,10,26,12.80
2017,05,24,10,27,12.90
2017,05,24,10,28,13.00
2017,05,24,10,29,13.10
2017,05,24,10,30,13.10
2017,05,24,10,31,13.10
2017,05,24,10,32,13.10
2017,05,24,10,33,13.10
2017,05,24,10,34,13.20
2017,05,24,10,35,13.20
2017,05,24,10,36,13.20
2017,05,24,10,37,13.20
2017,05,24,10,38,13.20
2017,05,24,10,39,13.20
2017,05,24,10,40,13.20
2017,05,24,10,41,13.20
2017,05,24,10,42,13.20
2017,05,24,10,43,13.20
2017,05,24,10,44,13.30
2017,05,24,10,45,13.30
2017,05,24,10,46,13.30
2017,05,24,10,47,13.30
2017,05,24,10,48,13.30
2017,05,24,10,49,13.30
2017,05,24,10,50,13.20
2017,05,24,10,51,13.20
2017,05,24,10,52,13.30
2017,05,24,10,53,13.30
2017,05,24,10,54,13.30
2017,05,24,10,55,13.30
2017,05,24,10,56,13.30
2017,05,24,10,57,13.30
2017,05,24,10,58,13.30
2017,05,24,10,59,13.40
2017,05,24,11,00,13.40
2017,05,24,11,01,13.40
2017,05,24,11,02,13.50
2017,05,24,11,03,13.50
2017,05,24,11,04,13.60
2017,05,24,11,05,13.70
2017,05,24,11,06,13.80
2017,05,24,11,07,13.90
2017,05,24,11,08,14.00
2017,05,24,11,09,14.10
2017,05,24,11,10,14.20
2017,05,24,11,11,14.30
2017,05,24,11,12,14.50
2017,05,24,11,13,14.60
2017,05,24,11,14,14.70
2017,05,24,11,15,14.80
2017,05,24,11,16,14.80
2017,05,24,11,17,14.80
2017,05,24,11,18,14.90
2017,05,24,11,19,15.00
2017,05,24,11,20,15.00
2017,05,24,11,21,15.00
2017,05,24,11,22,15.00
2017,05,24,11,23,15.00
2017,05,24,11,24,15.00
2017,05,24,11,25,15.00
2017,05,24,11,26,15.00
2017,05,24,11,27,15.10
2017,05,24,11,28,15.20
2017,05,24,11,29,15.20
2017,05,24,11,30,15.20
2017,05,24,11,31,15.30
2017,05,24,11,32,15.30
2017,05,24,11,33,15.30
2017,05,24,11,34,15.40
2017,05,24,11,35,15.40
2017,05,24,11,36,15.40
2017,05,24,11,37,15.50
2017,05,24,11,38,15.60
2017,05,24,11,39,15.70
2017,05,24,11,40,15.80
2017,05,24,11,41,16.00
2017,05,24,11,42,16.10
2017,05,24,11,43,16.20
2017,05,24,11,44,16.30
2017,05,24,11,45,16.30
2017,05,24,11,46,16.30
2017,05,24,11,47,16.30
2017,05,24,11,48,16.30
2017,05,24,11,49,16.20
2017,05,24,11,50,16.10
2017,05,24,11,51,16.00
2017,05,24,11,52,16.00
2017,05,24,11,53,16.00
2017,05,24,11,54,16.00
2017,05,24,11,55,16.00
2017,05,24,11,56,16.00
2017,05,24,11,57,15.90
2017,05,24,11,58,15.90
2017,05,24,11,59,15.80
2017,05,24,12,00,15.70
2017,05,24,12,01,15.70
2017,05,24,12,02,15.70
2017,05,24,12,03,15.70
2017,05,24,12,04,15.80
2017,05,24,12,05,15.80
2017,05,24,12,06,15.90
2017,05,24,12,07,15.90
2017,05,24,12,08,15.90
2017,05,24,12,09,15.90
2017,05,24,12,10,15.90
2017,05,24,12,11,15.90
2017,05,24,12,12,15.90
2017,05,24,12,13,15.90
2017,05,24,12,14,15.90
2017,05,24,12,15,16.00
2017,05,24,12,16,16.00
2017,05,24,12,17,16.00
2017,05,24,12,18,16.10
2017,05,24,12,19,16.10
2017,05,24,12,20,16.20
2017,05,24,12,21,16.30
2017,05,24,12,22,16.40
2017,05,24,12,23,16.50
2017,05,24,12,24,16.60
2017,05,24,12,25,16.70
2017,05,24,12,26,16.80
2017,05,24,12,27,16.80
2017,05,24,12,28,16.90
2017,05,24,12,29,17.00
2017,05,24,12,30,17.20
2017,05,24,12,31,17.30
2017,05,24,12,32,17.50
2017,05,24,12,33,17.70
2017,05,24,12,34,17.80
2017,05,24,12,35,17.80
2017,05,24,12,36,17.90
2017,05,24,12,37,17.90
2017,05,24,12,38,17.80
2017,05,24,12,39,17.70
2017,05,24,12,40,17.60
2017,05,24,12,41,17.60
2017,05,24,12,42,17.70
2017,05,24,12,43,17.80
2017,05,24,12,44,17.90
2017,05,24,12,45,17.90
2017,05,24,12,46,18.00
2017,05,24,12,47,17.90
2017,05,24,12,48,17.90
2017,05,24,12,49,17.90
2017,05,24,12,50,17.80
2017,05,24,12,51,17.70
2017,05,24,12,52,17.60
2017,05,24,12,53,17.50
2017,05,24,12,54,17.50
2017,05,24,12,55,17.50
2017,05,24,12,56,17.60
2017,05,24,12,57,17.60
2017,05,24,12,58,17.60
2017,05,24,12,59,17.70
2017,05,24,13,00,17.90
2017,05,24,13,01,18.00
2017,05,24,13,02,18.20
2017,05,24,13,03,18.30
2017,05,24,13,04,18.30
2017,05,24,13,05,18.30
2017,05,24,13,06,18.30
2017,05,24,13,07,18.30
2017,05,24,13,08,18.40
2017,05,24,13,09,18.40
2017,05,24,13,10,18.40
2017,05,24,13,11,18.40
2017,05,24,13,12,18.50
2017,05,24,13,13,18.50
2017,05,24,13,14,18.60
2017,05,24,13,15,18.60
2017,05,24,13,16,18.70
2017,05,24,13,17,18.80
2017,05,24,13,18,18.90
2017,05,24,13,19,18.90
2017,05,24,13,20,18.90
2017,05,24,13,21,18.90
2017,05,24,13,22,18.90
2017,05,24,13,23,18.90
2017,05,24,13,24,18.90
2017,05,24,13,25,18.80
2017,05,24,13,26,18.80
2017,05,24,13,27,18.70
2017,05,24,13,28,18.60
2017,05,24,13,29,18.50
2017,05,24,13,30,18.40
2017,05,24,13,31,18.20
2017,05,24,13,32,18.10
2017,05,24,13,33,18.10
2017,05,24,13,34,18.10
2017,05,24,13,35,18.10
2017,05,24,13,36,18.10
2017,05,24,13,37,18.10
2017,05,24,13,38,18.10
2017,05,24,13,39,18.10
2017,05,24,13,40,18.10
2017,05,24,13,41,18.10
2017,05,24,13,42,18.10
2017,05,24,13,43,18.20
2017,05,24,13,44,18.20
2017,05,24,13,45,18.30
2017,05,24,13,46,18.40
2017,05,24,13,47,18.50
2017,05,24,13,48,18.60
2017,05,24,13,49,18.70
2017,05,24,13,50,18.70
2017,05,24,13,51,18.70
2017,05,24,13,52,18.80
2017,05,24,13,53,18.90
2017,05,24,13,54,19.00
2017,05,24,13,55,19.10
2017,05,24,13,56,19.10
2017,05,24,13,57,19.20
2017,05,24,13,58,19.30
2017,05,24,13,59,19.20
2017,05,24,14,00,19.20
2017,05,24,14,01,19.30
2017,05,24,14,02,19.30
2017,05,24,14,03,19.20
2017,05,24,14,04,18.90
2017,05,24,14,05,18.80
2017,05,24,14,06,18.70
2017,05,24,14,07,18.70
2017,05,24,14,08,18.70
2017,05,24,14,09,18.70
2017,05,24,14,10,18.80
2017,05,24,14,11,18.80
2017,05,24,14,12,18.80
2017,05,24,14,13,18.80
2017,05,24,14,14,18.60
2017,05,24,14,15,18.50
2017,05,24,14,16,18.30
2017,05,24,14,17,18.20
2017,05,24,14,18,18.00
2017,05,24,14,19,17.90
2017,05,24,14,20,17.80
2017,05,24,14,21,17.70
2017,05,24,14,22,17.70
2017,05,24,14,23,17.60
2017,05,24,14,24,17.50
2017,05,24,14,25,17.50
2017,05,24,14,26,17.30
2017,05,24,14,27,17.20
2017,05,24,14,28,17.10
2017,05,24,14,29,17.00
2017,05,24,14,30,17.00
2017,05,24,14,31,17.10
2017,05,24,14,32,17.10
2017,05,24,14,33,17.10
2017,05,24,14,34,17.20
2017,05,24,14,35,17.30
2017,05,24,14,36,17.30
2017,05,24,14,37,17.30
2017,05,24,14,38,17.30
2017,05,24,14,39,17.30
2017,05,24,14,40,17.20
2017,05,24,14,41,17.20
2017,05,24,14,42,17.20
2017,05,24,14,43,17.40
2017,05,24,14,44,17.50
2017,05,24,14,45,17.70
2017,05,24,14,46,17.80
2017,05,24,14,47,17.80
2017,05,24,14,48,17.80
2017,05,24,14,49,17.80
2017,05,24,14,50,17.80
2017,05,24,14,51,17.80
2017,05,24,14,52,17.80
2017,05,24,14,53,17.80
2017,05,24,14,54,17.80
2017,05,24,14,55,17.80
2017,05,24,14,56,17.80
2017,05,24,14,57,17.80
2017,05,24,14,58,17.90
2017,05,24,14,59,17.90
2017,05,24,15,00,18.00
2017,05,24,15,01,18.00
2017,05,24,15,02,18.10
2017,05,24,15,03,18.20
2017,05,24,15,04,18.10
2017,05,24,15,05,18.10
2017,05,24,15,06,18.10
2017,05,24,15,07,18.00
2017,05,24,15,08,18.00
2017,05,24,15,09,17.90
2017,05,24,15,10,17.80
2017,05,24,15,11,17.80
2017,05,24,15,12,17.70
2017,05,24,15,13,17.70
2017,05,24,15,14,17.60
2017,05,24,15,15,17.40
2017,05,24,15,16,17.30
2017,05,24,15,17,17.30
2017,05,24,15,18,17.40
2017,05,24,15,19,17.40
2017,05,24,15,20,17.50
2017,05,24,15,21,17.50
2017,05,24,15,22,17.50
2017,05,24,15,23,17.50
2017,05,24,15,24,17.40
2017,05,24,15,25,17.30
2017,05,24,15,26,17.40
2017,05,24,15,27,17.30
2017,05,24,15,28,17.30
2017,05,24,15,29,17.30
2017,05,24,15,30,17.40
2017,05,24,15,31,17.50
2017,05,24,15,32,17.60
2017,05,24,15,33,17.60
2017,05,24,15,34,17.70
2017,05,24,15,35,17.80
2017,05,24,15,36,17.90
2017,05,24,15,37,17.90
2017,05,24,15,38,17.90
2017,05,24,15,39,17.90
2017,05,24,15,40,18.00
2017,05,24,15,41,18.00
2017,05,24,15,42,18.10
2017,05,24,15,43,18.10
2017,05,24,15,44,18.10
2017,05,24,15,45,18.10
2017,05,24,15,46,18.10
2017,05,24,15,47,18.00
2017,05,24,15,48,17.90
2017,05,24,15,49,17.90
2017,05,24,15,50,17.80
2017,05,24,15,51,17.70
2017,05,24,15,52,17.60
2017,05,24,15,53,17.50
2017,05,24,15,54,17.50
2017,05,24,15,55,17.40
2017,05,24,15,56,17.30
2017,05,24,15,57,17.30
2017,05,24,15,58,17.30
2017,05,24,15,59,17.30
2017,05,24,16,00,17.30
2017,05,24,16,01,17.30
2017,05,24,16,02,17.20
2017,05,24,16,03,17.10
2017,05,24,16,04,17.00
2017,05,24,16,05,16.90
2017,05,24,16,06,16.90
2017,05,24,16,07,16.90
2017,05,24,16,08,16.90
2017,05,24,16,09,16.90
2017,05,24,16,10,16.80
2017,05,24,16,11,16.80
2017,05,24,16,12,16.90
2017,05,24,16,13,16.90
2017,05,24,16,14,16.90
2017,05,24,16,15,16.90
2017,05,24,16,16,16.90
2017,05,24,16,17,16.90
2017,05,24,16,18,17.00
2017,05,24,16,19,17.00
2017,05,24,16,20,17.10
2017,05,24,16,21,17.00
2017,05,24,16,22,16.90
2017,05,24,16,23,16.90
2017,05,24,16,24,16.80
2017,05,24,16,25,16.80
2017,05,24,16,26,16.70
2017,05,24,16,27,16.70
2017,05,24,16,28,16.70
2017,05,24,16,29,16.70
2017,05,24,16,30,16.70
2017,05,24,16,31,16.60
2017,05,24,16,32,16.50
2017,05,24,16,33,16.50
2017,05,24,16,34,16.40
2017,05,24,16,35,16.40
2017,05,24,16,36,16.40
2017,05,24,16,37,16.30
2017,05,24,16,38,16.30
2017,05,24,16,39,16.30
2017,05,24,16,40,16.30
2017,05,24,16,41,16.30
2017,05,24,16,42,16.30
2017,05,24,16,43,16.30
2017,05,24,16,44,16.30
2017,05,24,16,45,16.30
2017,05,24,16,46,16.30
2017,05,24,16,47,16.30
2017,05,24,16,48,16.30
2017,05,24,16,49,16.30
2017,05,24,16,50,16.30
2017,05,24,16,51,16.30
2017,05,24,16,52,16.30
2017,05,24,16,53,16.30
2017,05,24,16,54,16.30
2017,05,24,16,55,16.30
2017,05,24,16,56,16.40
2017,05,24,16,57,16.30
2017,05,24,16,58,16.40
2017,05,24,16,59,16.40
2017,05,24,17,00,16.40
2017,05,24,17,01,16.40
2017,05,24,17,02,16.40
2017,05,24,17,03,16.40
2017,05,24,17,04,16.50
2017,05,24,17,05,16.50
2017,05,24,17,06,16.50
2017,05,24,17,07,16.60
2017,05,24,17,08,16.60
2017,05,24,17,09,16.70
2017,05,24,17,10,16.70
2017,05,24,17,11,16.70
2017,05,24,17,12,16.70
2017,05,24,17,13,16.70
2017,05,24,17,14,16.70
2017,05,24,17,15,16.70
2017,05,24,17,16,16.70
2017,05,24,17,17,16.70
2017,05,24,17,18,16.70
2017,05,24,17,19,16.70
2017,05,24,17,20,16.70
2017,05,24,17,21,16.60
2017,05,24,17,22,16.60
2017,05,24,17,23,16.60
2017,05,24,17,24,16.60
2017,05,24,17,25,16.60
2017,05,24,17,26,16.60
2017,05,24,17,27,16.60
2017,05,24,17,28,16.60
2017,05,24,17,29,16.60
2017,05,24,17,30,16.50
2017,05,24,17,31,16.50
2017,05,24,17,32,16.50
2017,05,24,17,33,16.40
2017,05,24,17,34,16.40
2017,05,24,17,35,16.40
2017,05,24,17,36,16.40
2017,05,24,17,37,16.40
2017,05,24,17,38,16.30
2017,05,24,17,39,16.30
2017,05,24,17,40,16.30
2017,05,24,17,41,16.30